20040227,532
20040301,557
20040302,568
20040303,584
20040304,599
20040305,625
20040308,670
20040309,730
20040310,772
20040311,798
20040312,840
20040315,872
20040316,895
20040317,941
20040318,1026
20040319,1061
20040322,1112
20040323,1136
20040324,1189
20040325,1231
20040326,1278
20040329,1308
20040330,1336
20040331,1395
20040401,1435
20040402,1395
20040405,1337
20040406,1339
20040407,1405
20040408,1426
20040409,1442
20040412,1461
20040413,1481
20040414,1488
20040415,1476
20040416,1475
20040419,1447
20040420,1457
20040421,1490
20040422,1506
20040423,1541
20040426,1550
20040427,1564
20040428,1573
20040430,1590
20040506,1595
20040507,1609
20040510,1581
20040511,1586
20040512,1617
20040513,1624
20040514,1631
20040517,1631
20040518,1648
20040519,1686
20040520,1705
20040521,1722
20040524,1756
20040525,1799
20040526,1813
20040527,1856
20040528,1884
20040531,1901
20040601,1931
20040602,1925
20040603,1939
20040604,1948
20040607,1965
20040608,1972
20040609,1988
20040610,2031
20040611,2033
20040614,2037
20040615,2042
20040616,2063
20040617,2083
20040618,2080
20040621,2094
20040622,2115
20040623,2126
20040624,2135
20040625,2132
20040628,2165
20040629,2194
20040630,2205
20040701,2226
20040702,2229
20040705,2235
20040706,2240
20040707,2245
20040708,2254
20040709,2270
20040712,2284
20040713,2292
20040714,2309
20040715,2316
20040716,2315
20040720,2319
20040721,2356
20040722,2370
20040723,2391
20040726,2430
20040727,2458
20040728,2486
20040729,2477
20040730,2513
20040802,2570
20040803,2586
20040804,2613
20040805,2668
20040806,2701
20040809,2725
20040810,2752
20040811,2787
20040812,2824
20040813,2845
20040816,2860
20040817,2862
20040818,2856
20040819,2851
20040820,2855
20040823,2851
20040824,2871
20040825,2883
20040826,2878
20040827,2892
20040830,2924
20040831,2935
20040901,2984
20040902,2988
20040903,2964
20040906,2925
20040907,2896
20040908,2902
20040909,2879
20040910,2859
20040913,2891
20040914,2904
20040915,2911
20040916,2862
20040917,2860
20040921,2851
20040922,2884
20040924,2911
20040927,2940
20040928,2979
20040929,3020
20040930,3037
20041001,3039
20041004,3045
20041005,3023
20041006,3011
20041007,3030
20041008,3070
20041012,3089
20041013,3046
20041014,3039
20041015,3036
20041018,3029
20041019,3037
20041020,3071
20041021,3051
20041022,3044
20041025,3009
20041026,3012
20041027,3000
20041028,2993
20041029,3000
20041101,2999
20041102,3005
20041104,3005
20041105,3001
20041108,3008
20041109,2978
20041110,2952
20041111,2939
20041112,2926
20041115,2911
20041116,2912
20041117,2920
20041118,2901
20041119,2886
20041122,2891
20041124,2932
20041125,2922
20041126,2889
20041129,2907
20041130,2897
20041201,2890
20041202,2887
20041203,2878
20041206,2870
20041207,2868
20041208,2865
20041209,2870
20041210,2847
20041213,2842
20041214,2837
20041215,2817
20041216,2872
20041217,2881
20041220,2910
20041221,2936
20041222,2962
20041224,2963
20041227,2977
20041228,3047
20041229,3060
20041230,3080
20050104,3084
20050105,3089
20050106,3077
20050107,3078
20050111,3067
20050112,3039
20050113,2998
20050114,3009
20050117,3001
20050118,3077
20050119,3098
20050120,3094
20050121,3098
20050124,3111
20050125,3139
20050126,3150
20050127,3160
20050128,3174
20050131,3180
20050201,3197
20050202,3189
20050203,3191
20050204,3183
20050207,3179
20050208,3165
20050209,3147
20050210,3119
20050214,3089
20050215,3085
20050216,3111
20050217,3133
20050218,3144
20050221,3145
20050222,3155
20050223,3155
20050224,3156
20050225,3164
20050228,3183
20050301,3186
20050302,3187
20050303,3183
20050304,3204
20050307,3211
20050308,3200
20050309,3207
20050310,3219
20050311,3220
20050314,3226
20050315,3249
20050316,3246
20050317,3252
20050318,3262
20050322,3286
20050323,3294
20050324,3315
20050325,3301
20050328,3330
20050329,3357
20050330,3392
20050331,3346
20050401,3314
20050404,3324
20050405,3330
20050406,3349
20050407,3368
20050408,3378
20050411,3378
20050412,3373
20050413,3353
20050414,3344
20050415,3325
20050418,3305
20050419,3322
20050420,3333
20050421,3344
20050422,3340
20050425,3357
20050426,3355
20050427,3342
20050428,3331
20050502,3345
20050506,3372
20050509,3355
20050510,3356
20050511,3358
20050512,3370
20050513,3382
20050516,3343
20050517,3328
20050518,3314
20050519,3326
20050520,3320
20050523,3316
20050524,3339
20050525,3336
20050526,3343
20050527,3331
20050530,3347
20050531,3370
20050601,3386
20050602,3390
20050603,3419
20050606,3440
20050607,3445
20050608,3474
20050609,3477
20050610,3483
20050613,3492
20050614,3489
20050615,3489
20050616,3467
20050617,3471
20050620,3478
20050621,3484
20050622,3527
20050623,3553
20050624,3560
20050627,3592
20050628,3641
20050629,3670
20050630,3717
20050701,3739
20050704,3752
20050705,3773
20050706,3837
20050707,3869
20050708,3856
20050711,3878
20050712,3873
20050713,3817
20050714,3784
20050715,3742
20050719,3710
20050720,3742
20050721,3791
20050722,3797
20050725,3813
20050726,3845
20050727,3853
20050728,3848
20050729,3845
20050801,3812
20050802,3811
20050803,3824
20050804,3836
20050805,3827
20050808,3785
20050809,3777
20050810,3789
20050811,3788
20050812,3754
20050815,3684
20050816,3814
20050817,3821
20050818,3826
20050819,3817
20050822,3849
20050823,3868
20050824,3938
20050825,3967
20050826,3951
20050829,3986
20050830,3965
20050831,4005
20050901,4039
20050902,4048
20050905,4037
20050906,3989
20050907,3986
20050908,4033
20050909,3998
20050912,3982
20050913,4001
20050914,3993
20050915,3999
20050916,3957
20050920,3967
20050921,4018
20050922,4096
20050926,4241
20050927,4263
20050928,4344
20050929,4454
20050930,4540
20051003,4532
20051004,4478
20051005,4450
20051006,4483
20051007,4527
20051011,4546
20051012,4569
20051013,4569
20051014,4629
20051017,4628
20051018,4616
20051019,4575
20051020,4616
20051021,4649
20051024,4660
20051025,4665
20051026,4667
20051027,4671
20051028,4672
20051031,4675
20051101,4752
20051102,4767
20051104,4783
20051107,4810
20051108,4844
20051109,4847
20051110,4857
20051111,4884
20051114,4918
20051115,4945
20051116,4933
20051117,4943
20051118,4966
20051121,4962
20051122,4972
20051124,4994
20051125,4981
20051128,5020
20051129,5042
20051130,5063
20051201,5026
20051202,5000
20051205,4977
20051206,4975
20051207,4979
20051208,4995
20051209,4988
20051212,4948
20051213,5009
20051214,5015
20051215,5009
20051216,5028
20051219,4984
20051220,5057
20051221,5128
20051222,5169
20051226,5195
20051227,5184
20051228,5209
20051229,5211
20051230,5213
20060104,5239
20060105,5265
20060106,5279
20060110,5275
20060111,5235
20060112,5236
20060113,5248
20060116,5233
20060117,5275
20060118,5180
20060119,5211
20060120,5252
20060123,5231
20060124,5274
20060125,5290
20060126,5292
20060127,5290
20060130,5238
20060131,5226
20060201,5236
20060202,5271
20060203,5239
20060206,5296
20060207,5295
20060208,5310
20060209,5300
20060210,5231
20060213,5173
20060214,5146
20060215,5127
20060216,5080
20060217,5073
20060220,5130
20060221,5176
20060222,5143
20060223,5198
20060224,5238
20060227,5284
20060228,5218
20060301,5132
20060302,5143
20060303,5111
20060306,5127
20060307,5087
20060308,5009
20060309,5032
20060310,5031
20060313,5021
20060314,5052
20060315,5061
20060316,5014
20060317,5016
20060320,5024
20060322,5009
20060323,4990
20060324,4942
20060327,4969
20060328,5045
20060329,5084
20060330,5109
20060331,5081
20060403,5056
20060404,5030
20060405,5020
20060406,4963
20060407,4956
20060410,5003
20060411,4994
20060412,5028
20060413,5034
20060414,5043
20060417,4975
20060418,4961
20060419,4966
20060420,4959
20060421,4902
20060424,4942
20060425,4931
20060426,4966
20060427,4941
20060428,4961
20060501,4994
20060502,4992
20060508,5071
20060509,5051
20060510,4996
20060511,4968
20060512,4981
20060515,4942
20060516,4857
20060517,4864
20060518,4777
20060519,4731
20060522,4736
20060523,4678
20060524,4710
20060525,4707
20060526,4748
20060529,4763
20060530,4757
20060531,4703
20060601,4715
20060602,4710
20060605,4727
20060606,4715
20060607,4714
20060608,4655
20060609,4585
20060612,4605
20060613,4563
20060614,4486
20060615,4464
20060616,4431
20060619,4259
20060620,4074
20060621,4327
20060622,4305
20060623,4308
20060626,4364
20060627,4399
20060628,4349
20060629,4334
20060630,4389
20060703,4412
20060704,4379
20060705,4354
20060706,4374
20060707,4385
20060710,4365
20060711,4292
20060712,4348
20060713,4288
20060714,4274
20060718,4134
20060719,4158
20060720,4204
20060721,4261
20060724,4223
20060725,4241
20060726,4218
20060727,4189
20060728,4161
20060731,4118
20060801,4104
20060802,4123
20060803,4142
20060804,4150
20060807,4125
20060808,4100
20060809,4135
20060810,4133
20060811,4103
20060814,4124
20060815,4115
20060816,4127
20060817,4122
20060818,4148
20060821,4076
20060822,4081
20060823,4095
20060824,4063
20060825,4080
20060828,4088
20060829,4082
20060830,4051
20060831,4082
20060901,4133
20060904,4156
20060905,4167
20060906,4150
20060907,4151
20060908,4177
20060911,4165
20060912,4217
20060913,4232
20060914,4146
20060915,4158
20060919,4076
20060920,4020
20060921,4037
20060922,4000
20060925,3943
20060926,4064
20060927,4069
20060928,4070
20060929,4036
20061002,4075
20061003,4085
20061004,4111
20061005,4130
20061006,4144
20061010,4142
20061011,4165
20061012,4157
20061013,4137
20061016,4151
20061017,4167
20061018,4158
20061019,4153
20061020,4224
20061023,4198
20061024,4227
20061025,4162
20061026,4191
20061027,4182
20061030,4152
20061031,4187
20061101,4200
20061102,4216
20061106,4231
20061107,4226
20061108,4231
20061109,4210
20061110,4224
20061113,4239
20061114,4231
20061115,4203
20061116,4181
20061117,4203
20061120,4208
20061121,4210
20061122,4209
20061124,4251
20061127,4319
20061128,4336
20061129,4320
20061130,4307
20061201,4274
20061204,4302
20061205,4348
20061206,4427
20061207,4362
20061208,4388
20061211,4420
20061212,4461
20061213,4543
20061214,4479
20061215,4412
20061218,4334
20061219,4257
20061220,4247
20061221,4271
20061222,4368
20061225,4374
20061226,4331
20061227,4359
20061228,4432
20061229,4441
20070104,4535
20070105,4529
20070109,4541
20070110,4480
20070111,4469
20070112,4455
20070115,4462
20070116,3338
20070117,3461
20070118,3456
20070119,3566
20070122,3649
20070123,3721
20070124,3746
20070125,3750
20070126,3799
20070129,3946
20070130,3949
20070131,4052
20070201,4176
20070202,4193
20070205,4196
20070206,4193
20070207,4248
20070208,4396
20070209,4409
20070213,4452
20070214,4608
20070215,4559
20070216,4531
20070219,4535
20070220,4564
20070221,4630
20070222,4697
20070223,4847
20070226,4946
20070227,4887
20070228,4685
20070301,4599
20070302,4561
20070305,4417
20070306,4560
20070307,4491
20070308,4525
20070309,4610
20070312,4779
20070313,4845
20070314,4656
20070315,4642
20070316,4609
20070319,4748
20070320,4820
20070322,4840
20070323,4901
20070326,4921
20070327,4957
20070328,5041
20070329,5066
20070330,5231
20070402,5321
20070403,5234
20070404,5256
20070405,5193
20070406,5232
20070409,5317
20070410,5271
20070411,5233
20070412,5178
20070413,5103
20070416,5261
20070417,5281
20070418,5311
20070419,5354
20070420,5328
20070423,5363
20070424,5416
20070425,5472
20070426,5579
20070427,5638
20070501,5695
20070502,5841
20070507,5954
20070508,5948
20070509,5942
20070510,5919
20070511,5958
20070514,5934
20070515,6001
20070516,5970
20070517,5953
20070518,5989
20070521,5990
20070522,5962
20070523,6011
20070524,6008
20070525,6022
20070528,6112
20070529,6105
20070530,6087
20070531,6147
20070601,6068
20070604,6060
20070605,6058
20070606,5940
20070607,5773
20070608,5673
20070611,5697
20070612,5806
20070613,5649
20070614,5630
20070615,5599
20070618,5760
20070619,5729
20070620,5784
20070621,5687
20070622,5561
20070625,5458
20070626,5445
20070627,5277
20070628,5372
20070629,5432
20070702,5560
20070703,5595
20070704,5549
20070705,5502
20070706,5513
20070709,5463
20070710,5457
20070711,5357
20070712,5319
20070713,5375
20070717,4872
20070718,4819
20070719,4729
20070720,4818
20070723,4667
20070724,4648
20070725,4690
20070726,4603
20070727,4439
20070730,4572
20070731,4692
20070801,4689
20070802,4616
20070803,4747
20070806,4735
20070807,4793
20070808,4862
20070809,5030
20070810,4826
20070813,4707
20070814,4747
20070815,4629
20070816,4443
20070817,4132
20070820,4202
20070821,4419
20070822,4523
20070823,4776
20070824,4667
20070827,4803
20070828,4703
20070829,4560
20070830,4650
20070831,4671
20070903,4638
20070904,4619
20070905,4535
20070906,4337
20070907,4308
20070910,4191
20070911,4189
20070912,4410
20070913,4428
20070914,4374
20070918,4122
20070919,4404
20070920,4373
20070921,4346
20070925,4389
20070926,4554
20070927,4767
20070928,4846
20071001,4783
20071002,4820
20071003,4844
20071004,4581
20071005,4705
20071009,4755
20071010,4734
20071011,4773
20071012,4677
20071015,4683
20071016,4563
20071017,4448
20071018,4501
20071019,4438
20071022,4292
20071023,4404
20071024,4422
20071025,4452
20071026,4521
20071029,4633
20071030,4632
20071031,4696
20071101,4717
20071102,4536
20071105,4463
20071106,4466
20071107,4477
20071108,4341
20071109,4314
20071112,4323
20071113,4327
20071114,4450
20071115,4489
20071116,4362
20071119,4402
20071120,4370
20071121,4286
20071122,4287
20071126,4465
20071127,4430
20071128,4441
20071129,4493
20071130,4505
20071203,4544
20071204,4570
20071205,4649
20071206,4740
20071207,4793
20071210,4714
20071211,4707
20071212,4639
20071213,4622
20071214,4449
20071217,4353
20071218,4379
20071219,4400
20071220,4438
20071221,4430
20071225,4520
20071226,4554
20071227,4509
20071228,4486
20080104,4367
20080107,4350
20080108,4322
20080109,4276
20080110,4182
20080111,4036
20080115,3893
20080116,3661
20080117,3738
20080118,3860
20080121,3789
20080122,3507
20080123,3616
20080124,3724
20080125,3817
20080128,3615
20080129,3673
20080130,3696
20080131,3730
20080201,3747
20080204,3852
20080205,3858
20080206,3713
20080207,3746
20080208,3720
20080212,3641
20080213,3625
20080214,3691
20080215,3741
20080218,3766
20080219,3825
20080220,3781
20080221,3810
20080222,3761
20080225,3781
20080226,3768
20080227,3789
20080228,3761
20080229,3715
20080303,3622
20080304,3553
20080305,3425
20080306,3445
20080307,3341
20080310,3361
20080311,3393
20080312,3389
20080313,3325
20080314,3233
20080317,3000
20080318,3130
20080319,3216
20080321,3352
20080324,3372
20080325,3441
20080326,3463
20080327,3380
20080328,3384
20080331,3441
20080401,3482
20080402,3623
20080403,3666
20080404,3634
20080407,3724
20080408,3692
20080409,3553
20080410,3496
20080411,3573
20080414,3467
20080415,3549
20080416,3550
20080417,3647
20080418,3616
20080421,3652
20080422,3643
20080423,3627
20080424,3532
20080425,3525
20080428,3552
20080430,3547
20080501,3602
20080502,3679
20080507,3746
20080508,3772
20080509,3693
20080512,3644
20080513,3671
20080514,3693
20080515,3680
20080516,3656
20080519,3591
20080520,3557
20080521,3501
20080522,3491
20080523,3550
20080526,3507
20080527,3548
20080528,3557
20080529,3617
20080530,3652
20080602,3660
20080603,3597
20080604,3566
20080605,3515
20080606,3500
20080609,3469
20080610,3403
20080611,3361
20080612,3346
20080613,3333
20080616,3388
20080617,3401
20080618,3435
20080619,3388
20080620,3325
20080623,3308
20080624,3349
20080625,3330
20080626,3335
20080627,3273
20080630,3374
20080701,3429
20080702,3310
20080703,3363
20080704,3408
20080707,3442
20080708,3389
20080709,3393
20080710,3348
20080711,3368
20080714,3357
20080715,3290
20080716,3222
20080717,3189
20080718,3172
20080722,3168
20080723,3221
20080724,3248
20080725,3249
20080728,3217
20080729,3210
20080730,3227
20080731,3254
20080801,3242
20080804,3201
20080805,3145
20080806,3202
20080807,3221
20080808,3239
20080811,3256
20080812,3289
20080813,3291
20080814,3189
20080815,3188
20080818,3173
20080819,3145
20080820,3137
20080821,3074
20080822,3038
20080825,3091
20080826,3038
20080827,2969
20080828,2933
20080829,3116
20080901,3109
20080902,2991
20080903,2950
20080904,2864
20080905,2755
20080908,2951
20080909,2986
20080910,2976
20080911,3041
20080912,3134
20080916,2854
20080917,2942
20080918,2823
20080919,2964
20080922,3014
20080924,2901
20080925,2936
20080926,2931
20080929,2888
20080930,2778
20081001,2844
20081002,2733
20081003,2534
20081006,2383
20081007,2433
20081008,2224
20081009,2148
20081010,1911
20081014,2104
20081015,2191
20081016,2029
20081017,2119
20081020,2225
20081021,2422
20081022,2166
20081023,2233
20081024,2096
20081027,1944
20081028,1872
20081029,2066
20081030,2216
20081031,2286
20081104,2440
20081105,2373
20081106,2248
20081107,2240
20081110,2209
20081111,2199
20081112,2187
20081113,2119
20081114,2126
20081117,2083
20081118,2010
20081119,1949
20081120,1900
20081121,1957
20081125,2032
20081126,2085
20081127,2126
20081128,2263
20081201,2120
20081202,2082
20081203,2075
20081204,2049
20081205,1967
20081208,1987
20081209,2126
20081210,2363
20081211,2352
20081212,2315
20081215,2362
20081216,2306
20081217,2347
20081218,2330
20081219,2396
20081222,2371
20081224,2308
20081225,2297
20081226,2324
20081229,2301
20081230,2326
20090105,2361
20090106,2361
20090107,2410
20090108,2322
20090109,2313
20090113,2187
20090114,2146
20090115,2148
20090116,2110
20090119,2115
20090120,2084
20090121,2119
20090122,2248
20090123,2295
20090126,2234
20090127,2310
20090128,2310
20090129,2332
20090130,2301
20090202,2223
20090203,2230
20090204,2201
20090205,2254
20090206,2245
20090209,2202
20090210,2204
20090212,2192
20090213,2209
20090216,2175
20090217,2185
20090218,2067
20090219,1929
20090220,1944
20090223,1886
20090224,1943
20090225,1867
20090226,1948
20090227,1998
20090302,1998
20090303,1971
20090304,1977
20090305,2004
20090306,1949
20090309,1897
20090310,1935
20090311,1939
20090312,2009
20090313,2052
20090316,2024
20090317,2094
20090318,2145
20090319,2112
20090323,2092
20090324,2135
20090325,2114
20090326,2156
20090327,2339
20090330,2254
20090331,2189
20090401,2178
20090402,2207
20090403,2172
20090406,2182
20090407,2270
20090408,2295
20090409,2291
20090410,2232
20090413,2226
20090414,2240
20090415,2200
20090416,2163
20090417,2186
20090420,2186
20090421,2160
20090422,2154
20090423,2212
20090424,2175
20090427,2153
20090428,2094
20090430,2179
20090501,2205
20090507,2273
20090508,2249
20090511,2302
20090512,2249
20090513,2219
20090514,2167
20090515,2212
20090518,2151
20090519,2174
20090520,2200
20090521,2167
20090522,2163
20090525,2192
20090526,2239
20090527,2284
20090528,2281
20090529,2318
20090601,2311
20090602,2323
20090603,2322
20090604,2333
20090605,2351
20090608,2367
20090609,2357
20090610,2363
20090611,2325
20090612,2329
20090615,2328
20090616,2296
20090617,2356
20090618,2365
20090619,2380
20090622,2454
20090623,2423
20090624,2430
20090625,2487
20090626,2591
20090629,2609
20090630,2606
20090701,2701
20090702,2724
20090703,2713
20090706,2715
20090707,2626
20090708,2747
20090709,2681
20090710,2734
20090713,2678
20090714,2735
20090715,2767
20090716,2742
20090717,2809
20090721,2817
20090722,2815
20090723,2799
20090724,2782
20090727,2789
20090728,2787
20090729,2775
20090730,2787
20090731,2847
20090803,2934
20090804,2949
20090805,2891
20090806,2909
20090807,2929
20090810,2943
20090811,2955
20090812,2989
20090813,2966
20090814,3045
20090817,2960
20090818,2935
20090819,2958
20090820,3008
20090821,3030
20090824,3066
20090825,3074
20090826,3104
20090827,3108
20090828,3149
20090831,3206
20090901,3211
20090902,3204
20090903,3207
20090904,3218
20090907,3197
20090908,3171
20090909,3341
20090910,3384
20090911,3405
20090914,3444
20090915,3498
20090916,3389
20090917,3386
20090918,3371
20090924,3376
20090925,3377
20090928,3382
20090929,3378
20090930,3464
20091001,3439
20091002,3400
20091005,3320
20091006,3406
20091007,3425
20091008,3396
20091009,3418
20091013,3429
20091014,3366
20091015,3382
20091016,3367
20091019,3369
20091020,3403
20091021,3353
20091022,3284
20091023,3299
20091026,3274
20091027,3289
20091028,3258
20091029,3179
20091030,3319
20091102,3382
20091104,3402
20091105,3306
20091106,3269
20091109,3296
20091110,3266
20091111,3265
20091112,3219
20091113,3197
20091116,3112
20091117,3085
20091118,3034
20091119,2886
20091120,2967
20091124,2956
20091125,2926
20091126,2911
20091127,2836
20091130,2908
20091201,3047
20091202,3031
20091203,3043
20091204,3087
20091207,3134
20091208,3015
20091209,2995
20091210,2970
20091211,2986
20091214,2974
20091215,2998
20091216,2980
20091217,3010
20091218,2973
20091221,2963
20091222,2975
20091224,3002
20091225,3031
20091228,3077
20091229,3119
20091230,3123
20100104,3186
20100105,3198
20100106,3179
20100107,3151
20100108,3143
20100112,3166
20100113,3181
20100114,3204
20100115,3239
20100118,3195
20100119,3214
20100120,3242
20100121,3236
20100122,3241
20100125,3235
20100126,3194
20100127,3145
20100128,3148
20100129,3163
20100201,3178
20100202,3212
20100203,3203
20100204,3204
20100205,3158
20100208,3099
20100209,3040
20100210,3097
20100212,3094
20100215,3103
20100216,3114
20100217,3207
20100218,3196
20100219,3207
20100222,3247
20100223,3276
20100224,3234
20100225,3253
20100226,3299
20100301,3352
20100302,3352
20100303,3371
20100304,3315
20100305,3331
20100308,3330
20100309,3311
20100310,3346
20100311,3383
20100312,3413
20100315,3447
20100316,3411
20100317,3438
20100318,3451
20100319,3447
20100323,3430
20100324,3403
20100325,3427
20100326,3471
20100329,3505
20100330,3565
20100331,3566
20100401,3558
20100402,3598
20100405,3623
20100406,3660
20100407,3661
20100408,3689
20100409,3685
20100412,3739
20100413,3773
20100414,3817
20100415,3891
20100416,3884
20100419,3878
20100420,3954
20100421,3978
20100422,4059
20100423,4047
20100426,4149
20100427,4169
20100428,4175
20100430,4270
20100506,4202
20100507,4184
20100510,4229
20100511,4136
20100512,4082
20100513,4168
20100514,4247
20100517,4104
20100518,3975
20100519,3999
20100520,3984
20100521,3950
20100524,3908
20100525,3818
20100526,3867
20100527,3880
20100528,3932
20100531,3953
20100601,3996
20100602,4000
20100603,3997
20100604,3963
20100607,3847
20100608,3830
20100609,3772
20100610,3828
20100611,3937
20100614,3940
20100615,3905
20100616,3972
20100617,3955
20100618,3886
20100621,3896
20100622,3919
20100623,3910
20100624,3965
20100625,3927
20100628,3890
20100629,3871
20100630,3850
20100701,3902
20100702,3931
20100705,3963
20100706,3930
20100707,3928
20100708,3914
20100709,3930
20100712,3928
20100713,3935
20100714,3969
20100715,3964
20100716,3878
20100720,3897
20100721,3936
20100722,3904
20100723,3907
20100726,3944
20100727,3977
20100728,4033
20100729,4053
20100730,4034
20100802,4128
20100803,4097
20100804,4086
20100805,4157
20100806,4352
20100809,4511
20100810,4589
20100811,4599
20100812,4670
20100813,4739
20100816,4890
20100817,4963
20100818,5066
20100819,5212
20100820,5364
20100823,5527
20100824,5681
20100825,5818
20100826,5979
20100827,6188
20100830,6437
20100831,6584
20100901,6729
20100902,6936
20100903,6875
20100906,6951
20100907,7016
20100908,7179
20100909,7232
20100910,7353
20100913,7452
20100914,7644
20100915,7843
20100916,7796
20100917,7905
20100921,8047
20100922,8161
20100924,8314
20100927,8343
20100928,8546
20100929,8917
20100930,9044
20101001,9443
20101004,9439
20101005,9671
20101006,9866
20101007,9920
20101008,9931
20101012,10064
20101013,10231
20101014,10474
20101015,10484
20101018,10502
20101019,10653
20101020,10900
20101021,11175
20101022,11339
20101025,11552
20101026,11849
20101027,12223
20101028,12338
20101029,12884
20101101,13686
20101102,13743
20101104,14078
20101105,14432
20101108,14848
20101109,15022
20101110,15270
20101111,15434
20101112,16100
20101115,16569
20101116,16980
20101117,17197
20101118,17860
20101119,17727
20101122,18052
20101124,18309
20101125,18663
20101126,18867
20101129,19218
20101130,19174
20101201,19768
20101202,20204
20101203,19901
20101206,20340
20101207,20169
20101208,20875
20101209,21276
20101210,21230
20101213,21859
20101214,22203
20101215,22740
20101216,22292
20101217,22120
20101220,21865
20101221,22435
20101222,22827
20101224,23244
20101227,23595
20101228,23190
20101229,23446
20101230,23742
20110104,24351
20110105,24142
20110106,24218
20110107,24119
20110111,24342
20110112,24532
20110113,24820
20110114,25112
20110117,24618
20110118,24513
20110119,24700
20110120,24662
20110121,24595
20110124,24682
20110125,25042
20110126,25352
20110127,25478
20110128,25646
20110131,25680
20110201,26022
20110202,25919
20110203,25812
20110204,25755
20110207,25686
20110208,25738
20110209,25804
20110210,25703
20110214,25468
20110215,25279